• In Uzbekistan
  • List of Countries
  • For 7 days
  • Water Temperature
  • Satellite Maps
  • Weather Map
  • Weather Widgets
  • user-avatar
    Login

    Hourly Weather Sgubovo

    Today, 23 September, Sunday

    Time Temperature Precipitation Wind Pressure Humidity
    00:00 +14°C° 0.1 mm 2 mps 741 mmHg 88%
    01:00 +13°C° 0.1 mm 2 mps 741 mmHg 89%
    02:00 +12°C° 0 mm 2 mps 740 mmHg 91%
    03:00 +12°C° 0.4 mm 2 mps 740 mmHg 91%
    04:00 +11°C° 0.4 mm 3 mps 740 mmHg 90%
    05:00 +10°C° 0.4 mm 3 mps 740 mmHg 90%
    06:00 +10°C° 1 mm 3 mps 740 mmHg 91%
    07:00 +10°C° 1 mm 3 mps 740 mmHg 91%
    08:00 +9°C° 0 mm 3 mps 739 mmHg 92%
    09:00 +10°C° 0.7 mm 3 mps 740 mmHg 90%
    10:00 +10°C° 0.7 mm 4 mps 740 mmHg 88%
    11:00 +11°C° 0.7 mm 4 mps 740 mmHg 85%
    12:00 +12°C° 0.1 mm 4 mps 740 mmHg 80%
    13:00 +12°C° 0.1 mm 4 mps 741 mmHg 74%
    14:00 +13°C° 0.1 mm 4 mps 741 mmHg 68%
    15:00 +13°C° 0.1 mm 4 mps 741 mmHg 71%
    16:00 +12°C° 0.1 mm 3 mps 741 mmHg 75%
    17:00 +11°C° 0.1 mm 3 mps 741 mmHg 78%
    18:00 +10°C° 0 mm 3 mps 741 mmHg 82%
    19:00 +9°C° 0 mm 3 mps 741 mmHg 85%
    20:00 +8°C° 0 mm 3 mps 741 mmHg 88%
    21:00 +8°C° 0 mm 3 mps 741 mmHg 90%
    22:00 +8°C° 0 mm 2 mps 741 mmHg 92%
    23:00 +7°C° 0 mm 2 mps 741 mmHg 93%

    Tomorrow, 24 September, Monday

    Time Temperature Precipitation Wind Pressure Humidity
    00:00 +7°C° 0 mm 2 mps 741 mmHg 94%
    01:00 +7°C° 0 mm 2 mps 741 mmHg 95%
    02:00 +6°C° 0 mm 2 mps 741 mmHg 96%
    03:00 +5°C° 0 mm 3 mps 741 mmHg 96%
    04:00 +5°C° 0 mm 3 mps 741 mmHg 96%
    05:00 +5°C° 0 mm 3 mps 741 mmHg 97%
    06:00 +7°C° 0 mm 3 mps 741 mmHg 93%
    07:00 +8°C° 0 mm 3 mps 741 mmHg 90%
    08:00 +8°C° 0 mm 3 mps 741 mmHg 86%
    09:00 +10°C° 0 mm 3 mps 741 mmHg 80%
    10:00 +11°C° 0 mm 3 mps 741 mmHg 73%
    11:00 +12°C° 0 mm 4 mps 741 mmHg 67%
    12:00 +12°C° 0.2 mm 3 mps 741 mmHg 69%
    13:00 +12°C° 0.2 mm 3 mps 740 mmHg 72%
    14:00 +12°C° 0.2 mm 3 mps 740 mmHg 75%
    15:00 +11°C° 0.7 mm 3 mps 740 mmHg 81%
    16:00 +10°C° 0.7 mm 3 mps 739 mmHg 87%
    17:00 +9°C° 0.7 mm 2 mps 739 mmHg 93%
    18:00 +9°C° 0.9 mm 3 mps 738 mmHg 93%
    19:00 +9°C° 0.9 mm 3 mps 738 mmHg 93%
    20:00 +7°C° 0.9 mm 4 mps 737 mmHg 93%
    21:00 +7°C° 1.7 mm 4 mps 736 mmHg 93%
    22:00 +7°C° 1.7 mm 4 mps 735 mmHg 93%
    23:00 +6°C° 1.7 mm 5 mps 734 mmHg 93%

    Day after tomorrow, 25 September, Tuesday

    Time Temperature Precipitation Wind Pressure Humidity
    00:00 +6°C° 2.8 mm 5 mps 733 mmHg 94%
    01:00 +6°C° 2.8 mm 5 mps 731 mmHg 94%
    02:00 +6°C° 2.8 mm 5 mps 730 mmHg 94%
    03:00 +6°C° 1.8 mm 5 mps 730 mmHg 94%
    04:00 +7°C° 1.8 mm 5 mps 729 mmHg 94%
    05:00 +7°C° 1.8 mm 4 mps 728 mmHg 94%
    06:00 +7°C° 1.3 mm 4 mps 729 mmHg 93%
    07:00 +7°C° 1.3 mm 5 mps 729 mmHg 93%
    08:00 +7°C° 1.3 mm 5 mps 729 mmHg 93%
    09:00 +7°C° 1.1 mm 5 mps 729 mmHg 92%
    10:00 +7°C° 1.1 mm 6 mps 730 mmHg 91%
    11:00 +5°C° 1.1 mm 7 mps 730 mmHg 90%
    12:00 +5°C° 0.6 mm 7 mps 731 mmHg 89%
    13:00 +5°C° 0.6 mm 8 mps 732 mmHg 88%
    14:00 +5°C° 0.6 mm 8 mps 733 mmHg 87%
    15:00 +5°C° 0.6 mm 8 mps 734 mmHg 87%
    16:00 +5°C° 0.6 mm 8 mps 734 mmHg 86%
    17:00 +3°C° 0.6 mm 9 mps 735 mmHg 85%
    18:00 +3°C° 0.4 mm 9 mps 736 mmHg 85%
    19:00 +3°C° 0.4 mm 9 mps 737 mmHg 84%
    20:00 +4°C° 0.4 mm 8 mps 739 mmHg 84%
    21:00 +2°C° 0.1 mm 8 mps 740 mmHg 82%
    22:00 +2°C° 0.1 mm 8 mps 741 mmHg 80%
    23:00 +2°C° 0.1 mm 7 mps 742 mmHg 78%

    26 September, Wednesday

    Time Temperature Precipitation Wind Pressure Humidity
    00:00 0°C° 0 mm 7 mps 743 mmHg 76%
    01:00 0°C° 0 mm 7 mps 744 mmHg 75%
    02:00 -1°C° 0 mm 6 mps 745 mmHg 74%
    03:00 -1°C° 0 mm 6 mps 745 mmHg 74%
    04:00 -1°C° 0 mm 5 mps 746 mmHg 74%
    05:00 -1°C° 0 mm 4 mps 747 mmHg 74%
    06:00 0°C° 0 mm 4 mps 747 mmHg 73%
    07:00 +1°C° 0 mm 4 mps 748 mmHg 73%
    08:00 +3°C° 0 mm 4 mps 748 mmHg 72%
    09:00 +5°C° 0 mm 4 mps 749 mmHg 71%
    10:00 +6°C° 0 mm 4 mps 749 mmHg 70%
    11:00 +7°C° 0 mm 4 mps 749 mmHg 69%
    12:00 +8°C° 0 mm 4 mps 749 mmHg 66%
    13:00 +9°C° 0 mm 5 mps 749 mmHg 63%
    14:00 +10°C° 0 mm 5 mps 748 mmHg 60%
    15:00 +10°C° 0 mm 4 mps 748 mmHg 62%
    16:00 +8°C° 0 mm 4 mps 747 mmHg 64%
    17:00 +7°C° 0 mm 4 mps 747 mmHg 67%
    18:00 +7°C° 0 mm 5 mps 746 mmHg 67%
    19:00 +7°C° 0 mm 5 mps 745 mmHg 67%
    20:00 +5°C° 0 mm 6 mps 745 mmHg 67%
    21:00 +5°C° 0.6 mm 7 mps 744 mmHg 73%
    22:00 +5°C° 0.6 mm 7 mps 742 mmHg 79%
    23:00 +5°C° 0.6 mm 8 mps 741 mmHg 85%

    27 September, Thursday

    Time Temperature Precipitation Wind Pressure Humidity
    00:00 +5°C° 1.4 mm 8 mps 740 mmHg 86%
    01:00 +5°C° 1.4 mm 8 mps 739 mmHg 87%
    02:00 +5°C° 1.4 mm 8 mps 738 mmHg 88%
    03:00 +5°C° 1.4 mm 8 mps 737 mmHg 89%
    04:00 +5°C° 1.4 mm 7 mps 736 mmHg 90%
    05:00 +4°C° 1.4 mm 7 mps 736 mmHg 90%
    06:00 +5°C° 0.4 mm 6 mps 735 mmHg 89%
    07:00 +7°C° 0.4 mm 5 mps 735 mmHg 88%
    08:00 +7°C° 0.4 mm 5 mps 735 mmHg 87%
    09:00 +8°C° 0.2 mm 5 mps 735 mmHg 81%
    10:00 +9°C° 0.2 mm 5 mps 736 mmHg 74%
    11:00 +9°C° 0.2 mm 6 mps 736 mmHg 68%
    12:00 +9°C° 0.1 mm 6 mps 736 mmHg 66%
    13:00 +9°C° 0.1 mm 6 mps 736 mmHg 64%
    14:00 +9°C° 0.1 mm 6 mps 736 mmHg 62%
    15:00 +9°C° 0.1 mm 5 mps 737 mmHg 66%
    16:00 +8°C° 0.1 mm 5 mps 737 mmHg 70%
    17:00 +7°C° 0.1 mm 4 mps 738 mmHg 74%
    18:00 +6°C° 0 mm 4 mps 738 mmHg 76%
    19:00 +6°C° 0 mm 4 mps 738 mmHg 78%
    20:00 +5°C° 0 mm 4 mps 739 mmHg 80%
    21:00 +5°C° 0 mm 4 mps 739 mmHg 81%
    22:00 +5°C° 0 mm 3 mps 739 mmHg 82%
    23:00 +4°C° 0 mm 3 mps 739 mmHg 82%

    28 September, Friday

    Time Temperature Precipitation Wind Pressure Humidity
    00:00 +4°C° 0 mm 3 mps 740 mmHg 84%
    01:00 +4°C° 0 mm 3 mps 740 mmHg 85%
    02:00 +4°C° 0 mm 3 mps 740 mmHg 87%
    03:00 +4°C° 0 mm 3 mps 740 mmHg 88%
    04:00 +3°C° 0 mm 3 mps 740 mmHg 89%
    05:00 +4°C° 0 mm 2 mps 740 mmHg 90%
    06:00 +5°C° 0 mm 2 mps 740 mmHg 88%
    07:00 +5°C° 0 mm 2 mps 739 mmHg 87%
    08:00 +7°C° 0 mm 1 mps 739 mmHg 86%
    09:00 +7°C° 0.4 mm 1 mps 738 mmHg 84%
    10:00 +7°C° 0.4 mm 1 mps 738 mmHg 83%
    11:00 +8°C° 0.4 mm 1 mps 738 mmHg 82%
    12:00 +8°C° 0.3 mm 1 mps 738 mmHg 82%
    13:00 +8°C° 0.3 mm 1 mps 737 mmHg 82%
    14:00 +8°C° 0.3 mm 1 mps 737 mmHg 82%
    15:00 +6°C° 0.3 mm 2 mps 738 mmHg 83%
    16:00 +6°C° 0.3 mm 2 mps 739 mmHg 84%
    17:00 +6°C° 0.3 mm 2 mps 739 mmHg 85%
    18:00 +6°C° 0.1 mm 2 mps 740 mmHg 85%
    19:00 +4°C° 0.1 mm 3 mps 741 mmHg 86%
    20:00 +4°C° 0.1 mm 3 mps 742 mmHg 87%
    21:00 +4°C° 0 mm 3 mps 742 mmHg 89%
    22:00 +3°C° 0 mm 3 mps 742 mmHg 91%
    23:00 +3°C° 0 mm 3 mps 743 mmHg 93%
    Show more